User: anonymous   Login
Location: NJAA Observatory
(40.6819°N, 74.8979°W)
Time: 05:21:38
(UTC-04:00)
Language:

Cosmos 1633 - Orbit

View from above orbital plane
View from above orbital plane
View from above satellite
View from above satellite

Ground track
Ground track

The orbit data is extracted from the following two-line orbital elements,

1 15592U 85020A   17265.92121800 +.00001545 +00000-0 +53843-4 0  9993
2 15592 082.5385 221.3652 0013214 183.8404 176.2737 15.28781756778943
Epoch (UTC): 22 September 2017 22:06:33
Eccentricity: 0.0013214
inclination: 82.5385°
perigee height: 470 km
apogee height: 488 km
right ascension of ascending node: 221.3652°
argument of perigee: 183.8404°
revolutions per day: 15.28781756
mean anomaly at epoch: 176.2737°
orbit number at epoch: 77894

The dashed part of the orbit path shows where the satellite is in the earth's shadow,  

DLR